Weather History for Gainesville, FL

Change the Weather History Date:

Wednesday, May 15, 2013

  Actual Average Record
Temperature  
Mean Temperature 69 °F 74 °F  
Max Temperature 86 °F 87 °F 97 °F (1985)
Min Temperature 51 °F 62 °F 46 °F (1917)
Degree Days  
Heating Degree Days 0 0  
Month to date heating degree days 4 0  
Since 1 July heating degree days 1040 1214  
Cooling Degree Days 4 10  
Month to date cooling degree days 69 121  
Year to date cooling degree days 355 328  
Growing Degree Days 18 (Base 50)    
Moisture  
Dew Point 51 °F    
Average Humidity 59    
Maximum Humidity 89    
Minimum Humidity 29    
Precipitation  
Precipitation 0.00 in 0.07 in 2.59 in (1918)
Month to date precipitation 3.63 0.96  
Year to date precipitation 10.06 14.47  
Snow  
Snow 0.00 in 0.00 in 0.00 in ()
Month to date snowfall 0.0 0.0  
Since 1 July snowfall 0.0 0.0  
Snow Depth 0.00 in    
Sea Level Pressure  
Sea Level Pressure 30.17 in    
Wind  
Wind Speed 2 mph (South)    
Max Wind Speed 12 mph    
Max Gust Speed 17 mph    
Visibility 10 miles    
Events      
T = Trace of Precipitation, MM = Missing Value Source: NWS Daily Summary

Daily Weather History Graph

Daily Weather History Graph

Search for Another Location

Airport:

Trip Planner

Search our weather history database for the weather conditions in past years. The results will help you decide how hot, cold, wet, or windy it might be!

Date:

Astronomy

May. 15, 2013 Rise Set
Actual Time 6:36 AM EDT 8:15 PM EDT
Civil Twilight 6:10 AM EDT 8:41 PM EDT
Nautical Twilight 5:38 AM EDT 9:12 PM EDT
Astronomical Twilight 5:05 AM EDT 9:45 PM EDT
Moon 11:06 AM EDT (5/15) 12:03 AM EDT (5/15)
Length of Visible Light 14h 31m
Length of Day
13h 39m
Waxing Crescent, 26% of the Moon is Illuminated
May 15
Waxing Crescent
May 18
First Quarter
May 25
Full
May 31
Last Quarter
Jun 8
New

Hourly Weather History & Observations

Time (EDT) Temp. Dew Point Humidity Pressure Visibility Wind Dir Wind Speed Gust Speed Precip Events Conditions
12:53 AM 57.9 °F 48.9 °F 72% 30.22 in 10.0 mi Calm Calm - N/A   Clear
1:53 AM 55.0 °F 48.9 °F 80% 30.21 in 10.0 mi Calm Calm - N/A   Clear
2:53 AM 54.0 °F 48.9 °F 83% 30.19 in 10.0 mi Calm Calm - N/A   Clear
3:53 AM 55.0 °F 50.0 °F 83% 30.18 in 10.0 mi Calm Calm - N/A   Clear
4:53 AM 53.1 °F 50.0 °F 89% 30.18 in 10.0 mi Calm Calm - N/A   Clear
5:53 AM 52.0 °F 48.9 °F 89% 30.20 in 10.0 mi Calm Calm - N/A   Clear
6:53 AM 52.0 °F 48.9 °F 89% 30.21 in 10.0 mi Calm Calm - N/A   Clear
7:53 AM 60.1 °F 55.0 °F 83% 30.22 in 10.0 mi Calm Calm - N/A   Clear
8:53 AM 70.0 °F 57.0 °F 63% 30.24 in 10.0 mi South 4.6 mph - N/A   Clear
9:53 AM 73.9 °F 55.0 °F 52% 30.24 in 10.0 mi WSW 4.6 mph - N/A   Clear
10:53 AM 77.0 °F 51.1 °F 40% 30.24 in 10.0 mi Variable 3.5 mph - N/A   Clear
11:53 AM 79.0 °F 48.9 °F 35% 30.23 in 10.0 mi Variable 3.5 mph - N/A   Clear
12:53 PM 81.0 °F 48.0 °F 31% 30.21 in 10.0 mi Calm Calm - N/A   Clear
1:53 PM 84.0 °F 50.0 °F 31% 30.19 in 10.0 mi NW 3.5 mph - N/A   Clear
2:53 PM 82.9 °F 50.0 °F 32% 30.16 in 10.0 mi ESE 5.8 mph - N/A   Clear
3:53 PM 84.0 °F 48.9 °F 29% 30.13 in 10.0 mi South 8.1 mph - N/A   Clear
4:53 PM 84.0 °F 50.0 °F 31% 30.12 in 10.0 mi SW 4.6 mph - N/A   Clear
5:53 PM 84.9 °F 51.1 °F 31% 30.10 in 10.0 mi Variable 3.5 mph - N/A   Clear
6:53 PM 84.0 °F 51.1 °F 32% 30.09 in 10.0 mi SSE 5.8 mph - N/A   Clear
7:53 PM 81.0 °F 52.0 °F 36% 30.08 in 10.0 mi Calm Calm - N/A   Clear
8:53 PM 72.0 °F 55.0 °F 55% 30.09 in 10.0 mi Calm Calm - N/A   Clear
9:53 PM 71.1 °F 55.0 °F 57% 30.11 in 10.0 mi Calm Calm - N/A   Clear
10:53 PM 64.9 °F 55.9 °F 73% 30.12 in 10.0 mi Calm Calm - N/A   Clear
11:53 PM 68.0 °F 55.0 °F 63% 30.12 in 10.0 mi SSE 5.8 mph - N/A   Clear